This is the latest recevied weather packets stored in our database for station/object KBTL-WX. If no packets are shown the sender has not sent any weather packets the latest 10 day(s).
| Time | Temp. | Humidity | Pressure | Rain* | Wind** | Luminosity | Snow |
|---|---|---|---|---|---|---|---|
| 1777808714 | 4.44° C | 60% | 980.7 hPa | 0 mm | - | - | - |
| 1777807829 | 3.89° C | 62% | 980.1 hPa | 0 mm | - | - | - |
| 1777806913 | 3.89° C | 62% | 980.2 hPa | 0 mm | - | - | - |
| 1777806039 | 3.33° C | 62% | 980.2 hPa | 0 mm | - | - | - |
| 1777805113 | 3.33° C | 62% | 980 hPa | 0 mm | - | - | - |
| 1777804228 | 3.33° C | 65% | 980.3 hPa | 0 mm | - | - | - |
| 1777803313 | 2.78° C | 65% | 980.3 hPa | 0 mm | - | - | - |
| 1777802440 | 2.78° C | 65% | 980.3 hPa | 0 mm | - | - | - |
| 1777801513 | 2.78° C | 64% | 980.3 hPa | 0 mm | - | - | - |
| 1777800633 | 2.78° C | 65% | 980.4 hPa | 0 mm | - | - | - |
| 1777799714 | 2.22° C | 65% | 980.3 hPa | 0 mm | - | - | - |
| 1777798837 | 2.22° C | 65% | 980.3 hPa | 0 mm | - | - | - |
| 1777797913 | 2.22° C | 60% | 980.4 hPa | 0 mm | - | - | - |
| 1777797032 | 2.22° C | 64% | 980.7 hPa | 0 mm | - | - | - |
| 1777796113 | 1.67° C | 64% | 980.7 hPa | 0 mm | - | - | - |
| 1777795233 | 1.67° C | 63% | 980.3 hPa | 0 mm | - | - | - |
| 1777794314 | 1.67° C | 66% | 980.9 hPa | 0 mm | - | - | - |
| 1777793432 | 1.67° C | 66% | 980.9 hPa | 0 mm | - | - | - |
| 1777792514 | 1.67° C | 66% | 980.9 hPa | 0 mm | - | - | - |
| 1777791637 | 1.67° C | 66% | 980.9 hPa | 0 mm | - | - | - |
| 1777790714 | 1.67° C | 64% | 981.7 hPa | 0 mm | - | - | - |
| 1777789828 | 2.22° C | 62% | 981.7 hPa | 0 mm | - | - | - |
| 1777788914 | 2.22° C | 62% | 981.7 hPa | 0 mm | - | - | - |
| 1777788040 | 2.22° C | 62% | 981.7 hPa | 0 mm | - | - | - |
| 1777787114 | 2.22° C | 63% | 982.2 hPa | 0 mm | - | - | - |
* Rain latest hour (hover to see other rain measurements)
** Current wind speed in m/s (hover to see current wind gust speed)